FENGYUN 1C DEB

Satellite information

Favourite Embed

Satellite Type and Status

DEBRISIN ORBIT

Key statistics

Satellite FENGYUN 1C DEB at a glance.

Uptime

9499

Days in orbit

Revolutions

≈ 14.2

Per day

Orbit

SSO

Sun Synchronous Orbit

Inclination

99.2

Latest

Satellite identification and parameters

Extended collection of information and parameters for FENGYUN 1C DEB.

Object identification

Identified? True

Debris? True

Object name: FENGYUN 1C DEB

International designator: 1999-025ETJ

Object number (NORAD): 38717

Object ID (CCSDS): 38717

Country: PEOPLES REPUBLIC OF CHINA (PRC)

Current information (Y/N): Y

RCS size: SMALL

Orbital parameters

Period: 101.525 minutes

Inclination: 99.1643 deg

SMA: 7209.007 km

Apoapsis: 871.336 km

Periapsis: 790.408 km

RAAN: 137.8837 deg

Eccentricy: 0.005613

Argument of periapsis: 246.43 deg

Mean anomaly: 143.2783 deg

Mean motion: 14.18370111 rev/day

Mean motion (dot): 0.0000339 rev/day2

B* drag term: 0.0016407 1/REarth

Two-line elements (TLE)

Creation date: May 10, 2025, 6:46 a.m.

Reference frame: TEME

Reference center: EARTH

Epoch: May 9, 2025, 11:10 p.m. UTC

TLE line 0: 0 FENGYUN 1C DEB

TLE line 1: 1 38717U 99025ETJ 25129.96562762 .00003390 00000-0 16407-2 0 9998

TLE line 2: 2 38717 99.1643 137.8837 0056130 246.4300 143.2783 14.18370111746733

Live tracking on map

Real-time ground track for satellite FENGYUN 1C DEB.

In-orbit conjunctions

A list of the most updated potential collisions computed for object FENGYUN 1C DEB.

Target Orbit TCA Probability of collision Miss distance Type
METEOR 2-7 DEB LEO 2025-01-19 08:18:09 0.0001045152 78.0 (m) DEBRIS
COSMOS 2056 LEO 2024-11-17 23:49:04 0.0001930341 283.0 (m) PAYLOAD

Associated space launch

Chinese polar orbiting meteorological satellite

FENGYUN 1C DEB was lifted into orbit during the mission ‘Long March 4B | Feng Yun 1C’, on board a Long March 4B space rocket.

The launch took place on May 10, 1999, 1:33 a.m. from Launch Complex 7.

For more information about the launch, click the button.

Launch to space Long March 4B | Feng Yun 1C
Long March 4B | Feng Yun 1C

Agency: N/A

Status: Launch Successful

Launch date: May 10, 1999, 1:33 a.m. UTC

Rocket: Long March 4B

Launch pad: Launch Complex 7

Location: Taiyuan Satellite Launch Center, People's Republic of China

...

Latest news about this satellite

There are no fresh news available about this satellite. Check back as we update our databases every day.


Newsletter sign-up

Weekly statistics, charts and insights to help you stay on top of the space industry.